Location: *
(33.6842°N, 117.7925°W)
Time: 16:44:34
(UTC+00:00)

Cosmos 2228 - Pass Details

Date: 21 October 2019
Orbit: 588 x 620 km, 82.5° (Epoch: 17 November)

Event Time Altitude Azimuth Distance (km) Brightness Sun altitude
Rises 13:13:43 0° 339° (NNW) 2,829 6.2 -10.5°
Reaches altitude 10° 13:16:12 10° 326° (NNW) 1,921 5.2 -10.0°
Maximum altitude 13:19:42 26° 270° (W) 1,180 3.9 -9.2°
Drops below altitude 10° 13:23:11 10° 214° (SW) 1,906 5.3 -8.5°
Sets 13:25:39 0° 201° (SSW) 2,802 6.3 -8.0°
